Location: Newark
(15.4608°S, 41.1635°W)
Time: 22:47:22
(UTC+00:00)

Tianhe-1 - Visible Passes

Search period start: 20 June 2021 00:00
Search period end: 30 June 2021 00:00
Orbit: 375 x 386 km, 41.5° (Epoch: 20 June)

Date Brightness Start Highest point End Pass type
(mag) Time Alt. Az. Time Alt. Az. Time Alt. Az.
26 Jun 2.9 21:00:35 10° S 21:02:31 15° SE 21:03:28 14° ESE visible
27 Jun 0.9 21:35:10 10° SW 21:38:18 89° W 21:39:16 41° NE visible
28 Jun 4.3 22:12:22 10° WNW 22:13:51 13° NW 22:15:19 10° NNW visible
29 Jun 3.0 21:10:06 10° WSW 21:12:57 32° NW 21:15:47 10° NNE visible
